Regional Weather Roundup
Issued by NWS

Home | Current Version | Previous Version | Graphics & Text | Print | Product List | Glossary On
Versions: 1 2 3 4 5 6 7 8 9 10 11 12 13 14 15 16 17 18 19 20 21 22 23 24 25 26 27 28 29 30 31 32 33 34 35 36 37 38 39 40 41 42 43 44 45 46 47 48 49 50
000
ASUS43 KMKX 151721
RWRWI

WISCONSIN REGIONAL WEATHER ROUNDUP
NATIONAL WEATHER SERVICE MILWAUKEE/SULLIVAN WI
1200 PM CDT MON SEP 15 2014

NOTE: "FAIR" INDICATES FEW OR NO CLOUDS BELOW 12,000 FEET WITH NO
SIGNIFICANT WEATHER AND/OR OBSTRUCTIONS TO VISIBILITY.

WIZ001-002-006>008-014>016-023>028-151800-
NORTHWEST WISCONSIN

CITY           SKY/WX    TMP DP  RH WIND       PRES   REMARKS
SUPERIOR ARPT  CLOUDY    55  37  50 NW8       30.19S
ASHLAND        SUNNY     58  37  45 NW13G18   30.17S
HAYWARD        SUNNY     56  31  38 N8G18     30.18S
SIREN          MOSUNNY   58  34  41 NW7       30.20R
RICE LAKE      PTSUNNY   56  39  51 N9        30.20R
LADYSMITH      MOSUNNY   56  42  59 N10       30.17F
EAU CLAIRE     PTSUNNY   58  44  60 N12       30.17S
MENOMONIE      MOSUNNY   58  43  57 NW12      30.19R
NEW RICHMOND   MOSUNNY   57  39  51 NE10      30.20S
OSCEOLA        PTSUNNY   56  43  60 N7        30.23S
$$

WIZ003>005-009-010-017-018-151800-
NORTH CENTRAL WISCONSIN

CITY           SKY/WX    TMP DP  RH WIND       PRES   REMARKS
WOODRUFF       MOSUNNY   57  47  70 N8        30.13F
RHINELANDER      N/A     57  42  57 W10       30.13F
EAGLE RIVER    PTSUNNY   53  40  62 NW8       30.12S
LAND O LAKES   MOSUNNY   54  44  67 NW7       30.13S
PHILLIPS       PTSUNNY   54  41  60 NW7       30.14S
TOMAHAWK       PTSUNNY   55  43  63 W7        30.14S
MEDFORD        PTSUNNY   55  46  70 NW7       30.14S
MERRILL        CLOUDY    54  45  72 W8        30.14R
$$

WIZ029-030-035-036-043>047-151800-
CENTRAL WISCONSIN

CITY           SKY/WX    TMP DP  RH WIND       PRES   REMARKS
WAUSAU         CLOUDY    56  43  61 W7        30.13S
MOSINEE        MOSUNNY   55  46  71 W6        30.15S
MARSHFIELD     CLOUDY    54  45  71 NW9       30.15R
STEVENS POINT  CLOUDY    52  47  84 CALM      30.15R
WAUPACA        DRIZZLE   56  51  85 S3        30.14F
WAUTOMA        CLOUDY    54  50  86 NW3       30.15F
WISC RAPIDS    LGT RAIN  52  50  93 W3        30.16S
CAMP DOUGLAS   LGT RAIN  52  52 100 W6        30.17R
$$

WIZ011>013-019>022-031-037>040-048>050-151800-
NORTHEAST WISCONSIN

CITY           SKY/WX    TMP DP  RH WIND       PRES   REMARKS
ANTIGO         CLOUDY    55  43  65 NW8       30.13S
STURGEON BAY   PTSUNNY   57  46  67 NW6       30.12F
GREEN BAY      CLOUDY    55  48  77 CALM      30.13F
MANITOWOC      LGT RAIN  55  52  89 W3        30.14S
APPLETON       CLOUDY    54  50  87 NW6       30.14F
CLINTONVILLE   CLOUDY    55  45  67 SW6       30.13S
OSHKOSH        LGT RAIN  54  50  86 N7        30.14S
$$

WIZ032>034-041-042-053>061-151800-
SOUTHWEST WISCONSIN

CITY           SKY/WX    TMP DP  RH WIND       PRES   REMARKS
LA CROSSE      LGT RAIN  53  48  83 N9        30.18F
SPARTA         LGT RAIN  51  49  93 CALM      30.18S
VIROQUA        CLOUDY    49  49 100 E6        30.16F
BOSCOBEL       LGT RAIN  54  50  86 CALM      30.18R
PRAIRIE DU CHI DRIZZLE   52  49  89 NW8       30.18R
PLATTEVILLE    CLOUDY    55  51  87 N9G16     30.15R
$$

WIZ056-057-062-063-064-067-068-151800-
SOUTH CENTRAL WISCONSIN

CITY           SKY/WX    TMP DP  RH WIND       PRES   REMARKS
BARABOO/DELLS  RAIN      51  49  92 W6        30.17R
LONE ROCK      LGT RAIN  56  50  80 NW9       30.17R
WATERTOWN      DRIZZLE   53  53  99 NE3       30.12S
MADISON        LGT RAIN  53  50  89 N6        30.14R FOG
MIDDLETON      CLOUDY    55  52  92 N5        30.14S
MONROE         CLOUDY    55  50  82 NE6       30.11S
JANESVILLE     CLOUDY    66  48  52 CALM      30.10F
$$

WIZ051-052-058>065-066-070>072-151800-
SOUTHEAST WISCONSIN

CITY           SKY/WX    TMP DP  RH WIND       PRES   REMARKS
MILWAUKEE      CLOUDY    57  51  80 NE3       30.13R
WAUKESHA       NOT AVBL
MILWAUKEE/TIMM LGT RAIN  54  48  82 CALM      30.13S
RACINE         CLOUDY    59  51  75 NE6       30.14R
BURLINGTON     PTSUNNY   57  51  80 N3        30.11F
KENOSHA        CLOUDY    62  47  57 CALM      30.12S
FOND DU LAC    LGT RAIN  54  48  80 N7        30.14S
SHEBOYGAN      LGT RAIN  53  50  89 NW3       30.14R
WEST BEND      LGT RAIN  54  48  82 CALM      30.13R
JUNEAU         CLOUDY    55  51  87 N3        30.14S
$$

LSZ147-162-151800-
LAKE SUPERIOR

STATION/POSITION TIME  TEMP    WIND        PRES    WAVE
                       AIR SEA DIR/SP/G            HT/PER
                 (UTC) (F)     (DEG/KT/KT) (MB)    (FT/S)
W MID LAKE BUOY  1650   49 47  270/ 10/ 12 1020.3F   1/ 3
DEVILS ISLAND    1700   51     260/ 12/ 16 1021.3F
PORT WING        1640   53     280/ 10/ 12 1021.7F
SAXON HARBOR     1640   54     320/  7/  8 1021.3S
$$

LMZ867-665-643>646-151800-
LAKE MICHIGAN

STATION/POSITION TIME  TEMP    WIND        PRES    WAVE
                       AIR SEA DIR/SP/G            HT/PER
                 (UTC) (F)     (DEG/KT/KT) (MB)    (FT/S)
N MID LAKE BUOY  1650   55 59  260/  4/  4 1019.7F   2/ 5
NORTHPORT PIER   1600   55     320/  5/  6 1019.6F
KEWAUNEE LAKESHO 1700   55     280/  4/  7 1019.4S
SHEBOYGAN LAKESH 1700   52 48  340/  3/  3 1020.8S
PORT WASHINGTON  1600   56      40/  3/  4 1020.3
ATWATER BUOY     1700   57     350/  6/  8 1020.9R
MILWAUKEE LAKESH 1700   56     350/  2/  3   N/A
S MID LAKE BUOY  1650   61 63   CALM  /  2 1020.1R   1/ 3
KENOSHA   LAKESH 1700   59     100/  5/  6 1019.6F
$$

TC  - TEMPERATURE IN CELSIUS
VSB - VISIBILITY IN STATUTE MILES
WCI - WIND CHILL INDEX
HX  - HEAT INDEX



USA.gov is the U.S. government's official web portal to all federal, state and local government web resources and services.